This is the latest recevied weather packets stored in our database for station/object AC1IX. If no packets are shown the sender has not sent any weather packets the latest 1 day(s).
| Time | Temp. | Humidity | Pressure | Rain* | Wind** | Luminosity | Snow |
|---|---|---|---|---|---|---|---|
| 1778000012 | 27.22° C | 42% | 1007.3 hPa | 0 mm | 1.34 m/s, 290° | 662 W/m² | - |
| 1777999708 | 26.67° C | 44% | 1007.5 hPa | 0 mm | 0.45 m/s, 260° | 642 W/m² | - |
| 1777999405 | 26.67° C | 41% | 1007.4 hPa | 0 mm | 1.34 m/s, 273° | 700 W/m² | - |
| 1777999103 | 26.67° C | 43% | 1007.4 hPa | 0 mm | 1.34 m/s, 267° | 706 W/m² | - |
| 1777998802 | 26.67° C | 44% | 1007.5 hPa | 0 mm | 0 m/s | 704 W/m² | - |
| 1777998500 | 26.67° C | 44% | 1007.8 hPa | 0 mm | 0.45 m/s, 290° | 638 W/m² | - |
| 1777998196 | 26.67° C | 44% | 1007.8 hPa | 0 mm | 0.45 m/s, 273° | 730 W/m² | - |
| 1777997893 | 26.11° C | 46% | 1007.8 hPa | 0 mm | 0.45 m/s, 291° | 731 W/m² | - |
| 1777997590 | 26.11° C | 43% | 1008 hPa | 0 mm | 1.34 m/s, 255° | 729 W/m² | - |
| 1777997288 | 25.56° C | 46% | 1008.2 hPa | 0 mm | 0.45 m/s, 309° | 672 W/m² | - |
| 1777996985 | 25° C | 47% | 1008.2 hPa | 0 mm | 0.89 m/s, 290° | 682 W/m² | - |
| 1777996682 | 25° C | 48% | 1008.2 hPa | 0 mm | 0.45 m/s, 271° | 538 W/m² | - |
| 1777996377 | 23.89° C | 49% | 1008.4 hPa | 0 mm | 0.45 m/s, 276° | 645 W/m² | - |
| 1777996074 | 23.89° C | 47% | 1008.2 hPa | 0 mm | 1.34 m/s, 272° | 262 W/m² | - |
| 1777995771 | 24.44° C | 48% | 1008.2 hPa | 0 mm | 0 m/s | 513 W/m² | - |
| 1777995467 | 23.89° C | 48% | 1008.4 hPa | 0 mm | 0.45 m/s, 294° | 466 W/m² | - |
| 1777995164 | 23.33° C | 49% | 1008.7 hPa | 0 mm | 0.45 m/s, 278° | 425 W/m² | - |
| 1777994861 | 22.78° C | 53% | 1008.7 hPa | 0 mm | 0 m/s | 334 W/m² | - |
| 1777994558 | 22.78° C | 51% | 1008.7 hPa | 0 mm | 0.89 m/s, 253° | 296 W/m² | - |
| 1777994257 | 22.78° C | 52% | 1008.9 hPa | 0 mm | 0 m/s | 347 W/m² | - |
| 1777993956 | 22.78° C | 53% | 1008.7 hPa | 0 mm | 0 m/s | 203 W/m² | - |
| 1777993652 | 23.33° C | 50% | 1008.7 hPa | 0 mm | 0.45 m/s, 275° | 212 W/m² | - |
| 1777993350 | 23.33° C | 52% | 1009.1 hPa | 0 mm | 0.45 m/s, 249° | 307 W/m² | - |
| 1777993050 | 23.33° C | 52% | 1009.1 hPa | 0 mm | 0.45 m/s, 282° | 420 W/m² | - |
| 1777992748 | 22.78° C | 53% | 1009 hPa | 0 mm | 0.45 m/s, 292° | 686 W/m² | - |
* Rain latest hour (hover to see other rain measurements)
** Current wind speed in m/s (hover to see current wind gust speed)